TimeCDT,TemperatureF,Dew PointF,Humidity,Sea Level PressureIn,VisibilityMPH,Wind Direction,Wind SpeedMPH,Gust SpeedMPH,PrecipitationIn,Events,Conditions,WindDirDegrees,DateUTC
12:15 AM,42.8,33.8,70,30.02,10.0,WNW,3.5,-,N/A,,Clear,300,2011-10-24 05:15:00
12:35 AM,44.6,33.8,66,30.03,10.0,WNW,4.6,-,N/A,,Clear,300,2011-10-24 05:35:00
12:55 AM,41.0,33.8,76,30.04,10.0,Calm,Calm,-,N/A,,Clear,0,2011-10-24 05:55:00
1:15 AM,42.8,33.8,70,30.04,10.0,WNW,4.6,-,N/A,,Clear,290,2011-10-24 06:15:00
1:35 AM,41.0,33.8,76,30.05,10.0,WSW,4.6,-,N/A,,Clear,240,2011-10-24 06:35:00
1:55 AM,44.6,35.6,71,30.05,10.0,WNW,3.5,-,N/A,,Clear,300,2011-10-24 06:55:00
2:15 AM,42.8,35.6,76,30.04,10.0,Calm,Calm,-,N/A,,Clear,0,2011-10-24 07:15:00
2:35 AM,42.8,35.6,76,30.05,10.0,West,3.5,-,N/A,,Clear,280,2011-10-24 07:35:00
2:55 AM,42.8,35.6,76,30.05,10.0,West,5.8,-,N/A,,Clear,270,2011-10-24 07:55:00
3:15 AM,41.0,35.6,81,30.05,10.0,West,3.5,-,N/A,,Clear,280,2011-10-24 08:15:00
3:35 AM,41.0,35.6,81,30.05,10.0,WNW,3.5,-,N/A,,Clear,290,2011-10-24 08:35:00
3:55 AM,39.2,35.6,87,30.06,10.0,West,5.8,-,N/A,,Clear,280,2011-10-24 08:55:00
4:15 AM,41.0,35.6,81,30.06,10.0,Calm,Calm,-,N/A,,Clear,0,2011-10-24 09:15:00
4:35 AM,41.0,35.6,81,30.05,10.0,Calm,Calm,-,N/A,,Clear,0,2011-10-24 09:35:00
4:55 AM,41.0,35.6,81,30.06,10.0,Calm,Calm,-,N/A,,Clear,0,2011-10-24 09:55:00
5:15 AM,41.0,35.6,81,30.07,10.0,Calm,Calm,-,N/A,,Clear,0,2011-10-24 10:15:00
5:35 AM,41.0,35.6,81,30.07,10.0,Calm,Calm,-,N/A,,Scattered Clouds,0,2011-10-24 10:35:00
5:55 AM,41.0,35.6,81,30.07,10.0,Calm,Calm,-,N/A,,Mostly Cloudy,0,2011-10-24 10:55:00
6:15 AM,41.0,37.4,87,30.07,10.0,Calm,Calm,-,N/A,,Mostly Cloudy,0,2011-10-24 11:15:00
6:35 AM,41.0,35.6,81,30.07,10.0,Calm,Calm,-,N/A,,Clear,0,2011-10-24 11:35:00
6:55 AM,39.2,35.6,87,30.07,10.0,Calm,Calm,-,N/A,,Clear,0,2011-10-24 11:55:00
7:15 AM,37.4,35.6,93,30.08,10.0,Calm,Calm,-,N/A,,Clear,0,2011-10-24 12:15:00
7:35 AM,39.2,35.6,87,30.08,10.0,Calm,Calm,-,N/A,,Clear,0,2011-10-24 12:35:00
8:15 AM,41.0,37.4,87,30.08,10.0,Calm,Calm,-,N/A,,Clear,0,2011-10-24 13:15:00
8:35 AM,41.0,37.4,87,30.09,10.0,Calm,Calm,-,N/A,,Clear,0,2011-10-24 13:35:00
8:55 AM,44.6,41.0,87,30.09,10.0,Calm,Calm,-,N/A,,Clear,0,2011-10-24 13:55:00
9:15 AM,46.4,41.0,81,30.10,10.0,Calm,Calm,-,N/A,,Clear,0,2011-10-24 14:15:00
9:35 AM,50.0,41.0,71,30.09,10.0,Calm,Calm,-,N/A,,Clear,0,2011-10-24 14:35:00
9:55 AM,53.6,41.0,62,30.10,10.0,Calm,Calm,-,N/A,,Clear,0,2011-10-24 14:55:00
10:15 AM,55.4,41.0,58,30.10,10.0,Calm,Calm,-,N/A,,Clear,0,2011-10-24 15:15:00
10:35 AM,60.8,37.4,42,30.10,10.0,SSW,8.1,-,N/A,,Clear,200,2011-10-24 15:35:00
10:55 AM,60.8,37.4,42,30.09,10.0,SSW,8.1,-,N/A,,Clear,210,2011-10-24 15:55:00
11:15 AM,64.4,37.4,37,30.09,10.0,SSW,9.2,-,N/A,,Clear,200,2011-10-24 16:15:00
11:35 AM,68.0,35.6,30,30.08,10.0,SSW,15.0,19.6,N/A,,Clear,200,2011-10-24 16:35:00
11:55 AM,68.0,35.6,30,30.08,10.0,SSW,8.1,16.1,N/A,,Clear,200,2011-10-24 16:55:00
12:15 PM,69.8,35.6,28,30.07,10.0,South,9.2,-,N/A,,Clear,180,2011-10-24 17:15:00
12:35 PM,69.8,33.8,27,30.06,10.0,SSW,10.4,-,N/A,,Clear,200,2011-10-24 17:35:00
1:35 PM,73.4,33.8,23,30.01,10.0,South,8.1,-,N/A,,Clear,170,2011-10-24 18:35:00
1:55 PM,71.6,33.8,25,30.00,10.0,SSE,8.1,-,N/A,,Clear,160,2011-10-24 18:55:00
2:15 PM,73.4,33.8,23,29.98,10.0,SSE,10.4,-,N/A,,Clear,150,2011-10-24 19:15:00
2:35 PM,73.4,33.8,23,29.96,10.0,SSE,11.5,17.3,N/A,,Clear,150,2011-10-24 19:35:00
2:55 PM,75.2,32.0,21,29.94,10.0,SE,11.5,17.3,N/A,,Clear,130,2011-10-24 19:55:00
3:15 PM,75.2,32.0,21,29.93,10.0,SSE,12.7,-,N/A,,Clear,150,2011-10-24 20:15:00
3:35 PM,77.0,32.0,19,29.92,10.0,SE,12.7,23.0,N/A,,Clear,140,2011-10-24 20:35:00
3:55 PM,77.0,32.0,19,29.91,10.0,SSE,12.7,17.3,N/A,,Clear,150,2011-10-24 20:55:00
4:15 PM,77.0,32.0,19,29.91,10.0,SSE,11.5,18.4,N/A,,Clear,160,2011-10-24 21:15:00
4:35 PM,75.2,32.0,21,29.90,10.0,SSE,12.7,20.7,N/A,,Clear,150,2011-10-24 21:35:00
4:55 PM,73.4,32.0,22,29.89,10.0,SE,13.8,17.3,N/A,,Clear,140,2011-10-24 21:55:00
5:15 PM,75.2,32.0,21,29.88,10.0,SE,10.4,-,N/A,,Clear,130,2011-10-24 22:15:00
5:35 PM,73.4,33.8,23,29.86,10.0,SE,10.4,-,N/A,,Clear,130,2011-10-24 22:35:00
5:55 PM,73.4,33.8,23,29.86,10.0,ESE,9.2,-,N/A,,Clear,120,2011-10-24 22:55:00
6:15 PM,71.6,33.8,25,29.85,10.0,ESE,8.1,-,N/A,,Clear,120,2011-10-24 23:15:00
6:35 PM,69.8,33.8,27,29.84,10.0,ESE,10.4,-,N/A,,Clear,110,2011-10-24 23:35:00
6:55 PM,68.0,33.8,28,29.84,10.0,ESE,10.4,-,N/A,,Clear,110,2011-10-24 23:55:00
7:15 PM,68.0,35.6,30,29.84,10.0,ESE,9.2,-,N/A,,Clear,110,2011-10-25 00:15:00
7:35 PM,68.0,35.6,30,29.83,10.0,ESE,9.2,-,N/A,,Clear,110,2011-10-25 00:35:00
7:55 PM,66.2,35.6,32,29.83,10.0,ESE,8.1,-,N/A,,Clear,110,2011-10-25 00:55:00
8:15 PM,64.4,35.6,34,29.82,10.0,ESE,8.1,-,N/A,,Clear,120,2011-10-25 01:15:00
8:35 PM,62.6,37.4,39,29.81,10.0,ESE,9.2,-,N/A,,Clear,120,2011-10-25 01:35:00
9:15 PM,64.4,37.4,37,29.80,10.0,SE,10.4,-,N/A,,Clear,140,2011-10-25 02:15:00
9:35 PM,64.4,37.4,37,29.80,10.0,SE,11.5,-,N/A,,Clear,140,2011-10-25 02:35:00
10:35 PM,64.4,39.2,40,29.78,10.0,SSE,13.8,18.4,N/A,,Clear,160,2011-10-25 03:35:00
11:15 PM,68.0,42.8,40,29.77,10.0,South,15.0,19.6,N/A,,Clear,170,2011-10-25 04:15:00
11:35 PM,68.0,42.8,40,29.76,10.0,South,17.3,23.0,N/A,,Clear,180,2011-10-25 04:35:00
11:55 PM,68.0,44.6,43,29.76,10.0,South,18.4,25.3,N/A,,Clear,180,2011-10-25 04:55:00